Home > Weather > Unnao > Past weeks

Flag for India Past Weather in Unnao, Uttar Pradesh, India — Yesterday and Last 2 Weeks

Now
81 °F

Light rain. Mostly cloudy.


Feels Like: 89 °F
Forecast: 80 / 89 °F
Wind: No wind

Location: Lucknow / Amausi

Current Time: Jul 29, 2016 at 4:02:34 AM

Latest Report: Jul 29, 2016 at 3:00 AM


Visibility: 2 mi

Pressure: 29.56 "Hg

Humidity: 100%

Dew Point: 81 °F

Location of UnnaoLocation

Past Weather in Unnao — Graph

°F

Unnao Temperature Yesterday

Maximum temperature yesterday: 90 °F (at 11:30 AM)
Minimum temperature yesterday: 81 °F (at 3:00 AM)
Average temperature yesterday: 85 °F

High & Low Weather Summary for the Past Weeks

 TemperatureHumidityPressure
High99 °F (Jul 14, 3:00 PM)100% (Jul 14, 3:00 AM)29.71 "Hg (Jul 14, 3:00 AM)
Low79 °F (Jul 19, 5:00 AM)46% (Jul 19, 4:00 PM)29.39 "Hg (Jul 14, 4:30 PM)
Average86 °F89%29.55 "Hg
* Reported Jul 14 2:00 AM — Jul 29 2:00 AM, Unnao, Weather by CustomWeather, © 2016

Note: Actual official high and low records may vary slightly from our data, if they occured in-between our weather recording intervals... More about our weather records

Advertising

Unnao Weather History for the Previous 24 Hours

Scroll right to see more
 ConditionsComfort  
Time TempWeatherWind HumidityBarometerVisibility
2:00 AM
Fri, Jul 29
81 °FMostly cloudy.No wind100%29.59 "Hg2 mi
1:00 AM81 °FMostly cloudy.No wind100%29.59 "Hg2 mi
12:00 AM81 °FPartly cloudy.No wind100%29.59 "Hg2 mi
11:00 PM
Thu, Jul 28
84 °FPartly cloudy.No wind100%29.62 "Hg2 mi
10:00 PM84 °FPartly cloudy.No wind100%29.59 "Hg2 mi
9:00 PM84 °FPartly cloudy.No wind100%29.59 "Hg2 mi
8:30 PM84 °FPartly cloudy.No wind100%29.59 "Hg2 mi
8:00 PM84 °FPartly cloudy.No wind94%29.59 "Hg2 mi
7:30 PM84 °FPartly cloudy.No wind94%29.56 "Hg2 mi
6:30 PM86 °FBroken clouds.No wind94%29.53 "Hg2 mi
6:00 PM90 °FBroken clouds.No wind84%29.53 "Hg2 mi
5:00 PM90 °FBroken clouds.No wind79%29.53 "Hg2 mi
4:30 PM90 °FBroken clouds.No wind84%29.53 "Hg2 mi
3:30 PM88 °FBroken clouds.No wind89%29.56 "Hg2 mi
2:00 PM88 °FLight rain. Broken clouds.2 mph89%29.59 "Hg2 mi
1:30 PM86 °FLight rain. Broken clouds.2 mph100%29.59 "Hg2 mi
1:00 PM86 °FLight rain. Broken clouds.2 mph94%29.62 "Hg2 mi
12:30 PM90 °FBroken clouds.5 mph79%29.62 "Hg2 mi
12:00 PM90 °FBroken clouds.No wind79%29.65 "Hg2 mi
11:30 AM90 °FBroken clouds.No wind79%29.65 "Hg2 mi
10:30 AM88 °FLight rain. Broken clouds.2 mph89%29.65 "Hg2 mi
10:00 AM88 °FLight rain. Broken clouds.2 mph89%29.65 "Hg2 mi
9:00 AM84 °FBroken clouds.No wind100%29.65 "Hg2 mi
8:30 AM84 °FBroken clouds.No wind100%29.65 "Hg2 mi
8:00 AM84 °FBroken clouds.No wind100%29.65 "Hg2 mi
7:30 AM82 °FBroken clouds.2 mph100%29.65 "Hg2 mi
7:00 AM82 °FFog.2 mph94%29.65 "Hg2 mi
6:30 AM82 °FFog.No wind94%29.65 "Hg1 mi
5:00 AM81 °FPartly cloudy.No wind100%29.62 "Hg2 mi
4:00 AM81 °FPartly cloudy.No wind100%29.62 "Hg2 mi
Weather by CustomWeather, © 2016

See weather overviewHow to use our weather pages